Location: Condor
(52.3263°N, 114.5541°W)
Time: 01:55:23
(UTC+00:00)

SO-50 - Pass Details

Date: 08 December 2023
Orbit: 608 x 661 km, 64.6° (Epoch: 28 February)

Event Time Altitude Azimuth Distance (km) Brightness Sun altitude
Exits shadow 14:09:58 13° 321° (NW) 1,830 ? -12.0°
Maximum altitude 14:12:14 18° 355° (N) 1,571 ? -11.7°
Drops below altitude 10° 14:15:25 10° 39° (NE) 2,026 ? -11.2°
Sets 14:18:21 0° 59° (ENE) 2,922 ? -10.8°
